Location: Campestrin
(46.4667°N, 11.7167°E)
Time: 06:36:05
(UTC+00:00)

Daily predictions for brighter satellites

Satellite Brightness Start Highest point End
(mag) Time Altitude Azimuth Time Altitude Azimuth Time Altitude Azimuth
CZ-4C R/B 2.6 18:27:53 10° SW 18:32:48 66° NW 18:38:49 10° NE
Cosmos 2322 4.0 18:27:17 10° NNW 18:32:52 55° ENE 18:38:24 10° SE
Cosmos 2344 4.0 18:26:59 10° S 18:33:44 36° ESE 18:40:32 10° NE
Ariane Rocket 3.7 18:29:20 10° SE 18:33:56 37° ENE 18:38:33 10° N
Cosmos 1302 Rocket 4.1 18:28:50 10° NNW 18:34:11 89° ENE 18:39:27 10° SSE
Cosmos 1269 Rocket 4.0 18:29:53 10° SSW 18:35:11 78° ESE 18:40:31 10° NNE
Cosmos 2228 3.0 18:33:53 10° S 18:38:13 80° E 18:42:34 10° N
SL-08 RB Rocket 4.4 18:33:49 10° S 18:38:26 61° W 18:43:02 10° NNW
Okean-O 4.1 18:35:05 10° S 18:39:15 40° W 18:43:28 10° NNW
MetOp-A 4.2 18:35:16 10° SSE 18:40:37 76° ENE 18:45:59 10° N
ARGOS 4.3 18:36:38 10° S 18:41:47 46° W 18:46:58 10° NNW
Cosmos 482 Debris 3.4 18:38:56 10° WSW 18:41:55 65° NNW 18:44:01 10° ENE
Cosmos 1408 3.0 18:38:39 10° N 18:42:04 41° ENE 18:45:27 10° SSE
RESURS DK-1 3.3 18:40:56 10° SSE 18:44:23 26° ESE 18:47:51 10° NE
Cosmos 1300 4.0 18:42:02 10° SSW 18:45:41 45° WNW 18:49:23 10° N
SL-16 R/B 4.3 18:48:48 10° N 18:51:02 12° NE 18:53:17 10° ENE
CSL-04 Rocket 4.3 18:46:42 10° S 18:51:54 57° W 18:57:06 10° NNW
CENTAUR R/B 4.3 18:44:31 10° NW 18:52:13 44° WSW 19:00:28 10° S
Cosmos 2058 3.6 18:49:15 10° N 18:53:08 35° ENE 18:56:58 10° SE
CZ-2C R/B 3.6 18:49:51 10° N 18:54:53 52° WNW 18:59:57 10° SW
Cosmos 1992 Rocket 4.1 18:51:19 10° NNW 18:56:29 60° ENE 19:01:38 10° SE
DMSP B5D2-2 4.3 18:52:21 10° NNE 18:57:37 80° WNW 19:02:52 10° SSW
Cosmos 2058 Rocket 3.2 18:53:40 10° S 18:57:54 52° E 19:02:09 10° NNE
Cosmos 2360 Rocket 3.1 18:53:18 10° NW 18:58:45 50° WSW 19:04:09 10° S
ATLAS 3B R/B 3.0 18:52:23 10° NW 18:59:19 61° NE 19:05:56 13° SE
COSMOS 2487 2.2 18:58:28 10° SSW 19:01:51 78° ESE 19:05:17 10° NNE
COSMOS 2428 2.8 18:56:40 10° NNW 19:02:24 63° ENE 19:07:47 11° SE
Cosmos 1953 Rocket 3.6 18:58:23 10° N 19:02:46 82° W 19:07:06 10° S
USA 186 2.5 18:59:42 10° S 19:02:53 54° W 19:05:57 10° NNW
USA 215 3.8 18:58:28 10° E 19:04:46 53° NNE 19:11:05 10° NW
SME Rocket 3.8 19:01:59 10° N 19:05:45 58° WNW 19:10:25 10° SSW
Cosmos 1092 Rocket 4.0 18:59:58 10° N 19:06:17 78° E 19:12:29 10° SSE
Cosmos 2333 4.4 19:01:38 10° NNW 19:07:26 75° WSW 19:13:07 10° SSE
Cosmos 1076 Rocket 4.5 19:06:48 10° N 19:10:41 30° ENE 19:13:19 17° SE
Cosmos 1818 3.8 19:06:39 10° S 19:11:46 44° ESE 19:16:57 10° NE
FALCON 9 DEB 3.4 19:09:40 10° SW 19:12:55 43° SE 19:16:12 10° ENE
Cosmos 909 Rocket 4.2 19:07:31 10° S 19:13:34 47° ESE 19:19:38 10° NE
NOSS 0 Rocket 4.3 19:08:16 10° NNW 19:14:20 51° NE 19:19:06 16° SE
ERS-2 3.8 19:11:41 10° N 19:15:05 37° WNW 19:18:27 10° SW
Cosmos 2219 Rocket 2.2 19:10:06 10° NNW 19:15:50 89° WSW 19:21:14 11° SSE
Resurs 01 Rocket 2.1 19:12:45 15° SE 19:16:08 43° ENE 19:20:22 10° N
Cosmos 44 3.5 19:11:16 10° SSW 19:16:11 54° ESE 19:21:24 10° NE
Cosmos 1455 2.0 19:15:28 10° S 19:19:13 84° E 19:22:58 10° N
ATLAS 5 CENTAUR R/B 4.3 19:20:31 10° WNW 19:23:39 20° NNW 19:27:07 10° NNE
Resurs 1-3 3.6 19:23:13 10° SSE 19:27:34 88° WSW 19:31:59 10° NNW
Cosmos 1633 3.9 19:26:24 10° NNE 19:29:21 23° ENE 19:30:05 22° E
IGS 5A 3.8 19:27:42 22° SE 19:30:07 48° ENE 19:34:08 10° N
Cosmos 1356 3.7 19:27:29 10° N 19:30:49 47° ENE 19:32:13 28° SE
Lacrosse 5 rocket 3.6 19:28:15 10° WNW 19:31:35 23° NNW 19:35:05 10° NE
ATLAS 5 CENTAUR R/B 1.9 19:30:40 10° WNW 19:32:23 31° SW 19:33:17 22° S
Cosmos 405 Rocket 2.8 19:31:12 10° N 19:35:12 61° ENE 19:37:22 25° SSE
Cosmos 1140 Rocket 4.3 19:38:38 24° SE 19:40:01 28° E 19:44:20 10° NE
IRIDIUM 106 4.4 19:36:08 16° SSE 19:40:09 55° E 19:45:15 10° NNE
SJ-6B 4.5 19:38:07 10° SSW 19:41:25 30° W 19:44:46 10° NNW
Cosmos 2279 Rocket 4.0 19:35:26 10° S 19:41:32 65° E 19:47:40 10° NNE
SPOT 5 4.2 19:40:17 18° E 19:41:42 21° ENE 19:45:13 10° NNE
Cosmos 2237 Rocket 2.5 19:37:06 10° NNW 19:42:36 50° ENE 19:45:36 26° ESE
Exosat Rocket 3.9 19:36:45 10° NNW 19:43:22 78° WSW 19:47:10 19° SSE
Spot 2 Rocket 4.2 19:41:32 24° ESE 19:43:47 37° ENE 19:48:25 10° N
BREEZE-M DEB (TANK) 3.6 19:39:29 10° W 19:44:06 85° S 19:48:45 15° E
BREEZE-M DEB (TANK) 4.2 19:42:32 10° W 19:45:54 75° NNW 19:55:38 10° ENE
SL-8 R/B 3.8 19:41:54 10° WNW 19:46:43 65° SSW 19:48:58 30° SE
CZ-2C R/B 3.8 19:44:10 10° NNE 19:48:30 49° E 19:50:39 26° SSE
Cosmos 2026 Rocket 4.3 19:43:37 10° NNW 19:49:38 64° W 19:55:39 10° S
OBJECT-B 3.3 19:47:25 10° SW 19:49:54 21° W 19:52:26 10° NW
Terra 3.4 19:50:06 18° E 19:51:18 20° ENE 19:54:42 10° NNE
MetOp-B 4.1 19:52:09 25° SSE 19:55:19 74° ENE 20:00:41 10° N
Cosmos 2227 Rocket 2.8 19:57:04 30° SE 19:58:13 33° ESE 20:03:14 10° NE
SPOT 1/Viking Rocket 3.6 19:58:13 31° SE 20:00:41 64° ENE 20:05:52 10° N
Cosmos 389 Rocket 2.4 20:00:14 31° SSW 20:01:50 88° W 20:05:24 10° N
Cosmos 2251 Rocket 3.8 19:56:43 10° SSW 20:02:03 70° WNW 20:07:25 10° NNE
Cosmos 2297 Rocket 2.4 20:02:12 22° S 20:05:30 48° ESE 20:10:56 10° NE
Cosmos 2333 Rocket 3.7 20:00:48 10° NW 20:05:52 33° WSW 20:10:53 10° SSW
Cosmos 2266 Rocket 4.1 20:00:37 10° N 20:06:57 59° ENE 20:09:47 32° SE
SPOT 3 Rocket 3.8 20:03:45 21° S 20:07:13 68° WSW 20:12:25 10° NNW
Cosmos 2219 3.4 20:05:52 30° SSE 20:08:11 46° ESE 20:13:31 10° NE
BREEZE-M DEB (TANK) 2.0 20:06:18 10° WNW 20:08:16 62° NW 20:08:16 62° NW
Cosmos 1190 Rocket 4.3 20:07:39 37° SE 20:08:49 43° ESE 20:13:44 10° NE
Cosmos 1825 4.0 20:05:35 10° NNW 20:08:51 28° W 20:11:59 11° SSW
ATLAS 2AS CENTAUR R/B 3.8 20:01:46 10° WSW 20:09:27 52° NW 20:17:00 10° NE
ARIANE 5 R/B 2.8 20:09:20 44° ESE 20:10:20 56° ENE 20:14:39 10° N
Meteor 2-21 Rocket 4.4 20:07:45 10° N 20:13:48 66° ENE 20:16:19 36° SSE
Timation 2 Rocket 4.2 20:10:14 23° S 20:14:01 48° ESE 20:20:06 10° NE
RESURS DK-1 4.1 20:18:31 10° WSW 20:22:17 33° NW 20:26:05 10° NNE
Landsat 7 4.3 20:20:37 28° SSW 20:22:58 57° W 20:27:40 10° NNW
Genesis I 3.7 20:21:14 10° NNW 20:25:08 49° NE 20:25:23 48° ENE
USA 245 3.2 20:24:37 63° S 20:25:11 79° WSW 20:28:38 10° NNW
Cosmos-2242 2.9 20:25:50 64° SE 20:26:21 72° E 20:30:39 10° NNE
Meteor 2-16 Rocket 4.4 20:21:06 10° N 20:27:16 71° E 20:29:25 42° SSE
Cosmos 1655 Rocket 4.0 20:28:31 10° N 20:34:49 78° W 20:37:46 34° S
SL-16 R/B 2.6 20:31:06 10° NNW 20:36:38 49° ENE 20:37:53 42° E
Cosmos 1980 4.0 20:32:15 10° NNW 20:37:51 62° WSW 20:39:45 40° S
Cosmos 2151 3.6 20:40:16 10° NNW 20:44:27 51° W 20:45:17 44° SW
Meteor 2-3 Rocket 3.8 20:40:52 10° NNW 20:46:38 73° W 20:48:26 45° S
USA 215 3.3 20:45:38 44° SSE 20:47:42 66° SW 20:54:12 10° NW
Cosmos 2344 4.3 20:40:29 10° WSW 20:47:43 54° NW 20:55:44 10° NE
Meteor 1-27 4.1 20:47:48 51° S 20:49:21 82° E 20:55:11 10° NNE
ATLAS 3B R/B 3.9 20:43:28 10° NW 20:49:46 36° WSW 20:53:12 24° SSW
FALCON 9 DEB 4.4 20:46:35 10° W 20:49:45 41° NNW 20:49:45 41° NNW
Cosmos 2221 4.2 20:53:18 22° NE 20:53:18 22° NE 20:55:15 10° NNE
Resurs 01 Rocket 3.8 20:50:18 14° SW 20:52:49 21° W 20:56:13 10° NW
ERS-1 Rocket 2.8 20:54:40 69° S 20:55:16 83° WSW 21:00:20 10° NNW
Cosmos 407 Rocket 4.0 20:53:35 20° SW 20:57:03 58° WNW 21:02:11 10° NNE
Okean 3 Rocket 3.6 20:54:58 10° N 20:59:21 82° NNW 20:59:21 82° NNW
Cosmos 1766 Rocket 3.7 20:59:31 10° NNW 21:03:29 71° NW 21:03:29 71° NW
Cosmos 1633 4.5 21:01:08 10° NW 21:04:03 23° W 21:04:10 23° W
CARTOSAT-1 4.2 21:04:22 47° WSW 21:04:30 47° W 21:08:42 10° NNW
Meteor 1-4 Rocket 4.4 21:10:11 26° N 21:10:11 26° N 21:11:52 10° N
Meteor 2-15 4.3 21:09:37 68° SE 21:10:11 73° E 21:16:14 10° NNE
Lacrosse 5 rocket 3.7 21:08:37 10° NW 21:11:56 21° N 21:14:11 15° NE
Cosmos 1954 Rocket 3.8 21:12:17 88° WSW 21:12:19 89° WNW 21:17:31 10° NNE
Meteor 2-2 Rocket 4.3 21:18:00 61° E 21:18:00 61° E 21:23:21 10° NNE
Cosmos 1869 4.3 21:18:39 45° NNW 21:18:39 45° NNW 21:21:43 10° N
COSMOS 2455 2.8 21:18:15 69° E 21:18:15 69° E 21:23:57 10° NE
SPOT 5 3.3 21:19:30 49° W 21:19:30 49° W 21:24:00 10° NNW
Cosmos 2237 Rocket 3.6 21:21:41 10° NW 21:26:22 28° WSW 21:27:26 26° WSW
SeaSat 1 3.8 21:22:08 10° NE 21:24:38 28° NE 21:24:38 28° NE
Terra 2.3 21:28:59 56° W 21:28:59 56° W 21:33:20 10° NNW
Timation 1 Rocket 4.2 21:33:37 76° SW 21:34:07 84° WNW 21:40:08 10° NNE
Cosmos 2082 3.7 21:39:13 79° WNW 21:39:13 79° WNW 21:44:52 10° NNE
Cosmos 2263 Rocket 3.6 21:42:46 25° ENE 21:42:46 25° ENE 21:45:27 10° NE
Cosmos 2227 Rocket 3.2 21:38:45 21° WSW 21:42:08 43° NW 21:47:32 10° NNE
USA 229 DEB 4.2 21:37:04 10° NW 21:44:12 57° NE 21:46:07 45° E
USA 229 4.3 21:37:10 10° NW 21:44:18 56° NE 21:46:15 45° E
Cosmos 468 Rocket 4.3 21:39:21 10° NNW 21:43:44 62° NW 21:43:44 62° NW
Cosmos 2297 Rocket 3.8 21:44:46 10° WSW 21:49:46 32° NW 21:54:49 10° NNE
Cosmos 1603 4.2 21:45:14 10° NNW 21:50:37 50° NE 21:50:37 50° NE
Cosmos 841 Rocket 4.0 21:47:10 10° NNW 21:51:30 54° NNE 21:51:30 54° NNE
Cosmos 1745 Rocket 3.9 21:50:21 10° N 21:56:33 77° ENE 21:56:33 77° ENE
NOSS 3-1 (A) 4.2 21:54:47 10° NW 22:02:07 65° NE 22:04:05 51° E
Cosmos 1709 Rocket 4.4 21:56:23 10° N 22:02:05 50° ENE 22:02:05 50° ENE
Cosmos 1763 Rocket 4.3 21:59:09 10° NNW 22:02:58 43° WNW 22:02:58 43° WNW
S3M 4.0 22:08:54 81° NE 22:08:54 81° NE 22:15:02 10° N
SL-16 R/B 3.6 22:15:41 10° NW 22:19:46 28° W 22:19:46 28° W
Cosmos 540 Rocket 4.4 22:18:28 10° NNW 22:22:04 44° NW 22:22:04 44° NW
NOSS 3-1 (C) 4.0 22:20:48 10° NW 22:28:19 71° SW 22:28:43 70° SW
Aureole 1 Rocket 4.3 22:38:08 51° NNW 22:38:08 51° NNW 22:42:07 10° NNE
ALOS 2 4.4 22:49:56 30° NNW 22:49:56 30° NNW 22:52:10 10° NNW
Cosmos 1943 4.0 22:44:57 10° NNW 22:48:59 46° NW 22:48:59 46° NW
Lacrosse 5 rocket 3.6 22:47:45 10° NW 22:49:48 25° NNW 22:49:48 25° NNW
SeaSat 1 3.9 22:59:58 10° N 23:04:15 30° NW 23:04:24 30° NW
Cosmos 2315 Rocket 4.3 23:10:31 62° NW 23:10:31 62° NW 23:16:20 10° N
Cosmos 2184 Rocket 4.3 23:06:47 10° N 23:12:34 63° NE 23:12:34 63° NE
Cosmos 968 Rocket 4.5 23:24:12 45° NNE 23:24:12 45° NNE 23:27:49 10° NNE
Cosmos 2263 Rocket 3.2 23:24:25 38° NW 23:24:25 38° NW 23:29:28 10° NNE
USA 281 3.1 23:33:03 82° NNW 23:33:03 82° NNW 23:39:20 10° NNW
Cosmos 1844 Rocket 3.4 23:39:31 47° NE 23:39:31 47° NE 23:43:33 10° NNE
SL-4 R/B 4.3 23:41:44 24° ENE 23:41:44 24° ENE 23:43:48 10° ENE
Cosmos 2074 Rocket 4.2 23:37:57 10° NNW 23:43:22 64° NW 23:43:22 64° NW
SJ 16-02 4.0 23:56:01 13° ENE 23:56:01 13° ENE 23:57:10 10° ENE
